SP1JT-10 Weather Reports


time (UTC)temp
F
wind
direction
speed
knots
gust
knots
rain 1hr
in
rain 24hr
in
rain mn
in
humidity
%
barometer
mb
20260507220914 41 0.0 0.0 0.00 0.00 0.00 85 1021.3
20260507215915 41 0.0 0.0 0.00 0.00 0.00 84 1021.3
20260507214914 41 0.0 0.0 0.00 0.00 0.00 84 1021.1
20260507213915 41 0.0 0.0 0.00 0.00 0.00 83 1021.1
20260507212915 41 0.0 0.0 0.00 0.00 0.00 85 1021.0
20260507211912 42 0.0 0.0 0.00 0.00 0.00 84 1021.0
20260507210914 42 0.0 0.0 0.00 0.00 0.00 83 1021.0
20260507205913 42 0.0 0.0 0.00 0.00 0.00 83 1020.9
20260507205813 42 0.0 0.0 0.00 0.00 0.00 84 1020.8
20260507205714 42 0.0 0.0 0.00 0.00 0.00 83 1020.8
20260507205613 42 0.0 0.0 0.00 0.00 0.00 83 1020.8
20260507205511 42 0.0 0.0 0.00 0.00 0.00 84 1020.8
20260507205443 42 0.0 0.0 0.00 0.00 0.00 83 1020.7
20260507203419 42 0.0 0.0 0.00 0.00 0.00 82 1020.7
20260507201914 42 0.0 0.0 0.00 0.00 0.00 82 1020.6
20260507200913 42 0.0 0.0 0.00 0.00 0.00 82 1020.5
20260507195914 42 0.0 0.0 0.00 0.00 0.00 82 1020.4
20260507194914 43 0.0 0.0 0.00 0.00 0.00 81 1020.2
20260507193913 43 0.0 0.0 0.00 0.00 0.00 81 1020.1
20260507191913 43 0.0 0.0 0.00 0.00 0.00 79 1020.0
20260507190912 44 0.0 0.0 0.00 0.00 0.00 77 1019.8
20260507185813 44 0.0 0.0 0.00 0.00 0.00 77 1019.8
20260507185713 44 0.0 0.0 0.00 0.00 0.00 77 1019.8
20260507185612 44 0.0 0.0 0.00 0.00 0.00 77 1019.8
20260507185512 44 0.0 0.0 0.00 0.00 0.00 77 1019.7
20260507185413 44 0.0 0.0 0.00 0.00 0.00 77 1019.7
20260507184413 45 0.0 0.0 0.00 0.00 0.00 76 1019.7
20260507183413 45 0.0 0.0 0.00 0.00 0.00 76 1019.6
20260507182413 45 0.0 0.0 0.00 0.00 0.00 76 1019.5
20260507164943 48 0.0 0.0 0.00 0.00 0.00 71 1018.7
20260507163913 48 0.0 0.0 0.00 0.00 0.00 71 1018.7
20260507162913 48 0.0 0.0 0.00 0.00 0.00 68 1018.7
20260507161913 49 0.0 0.0 0.00 0.00 0.00 67 1018.6
20260507155916 49 0.0 0.0 0.00 0.00 0.00 65 1018.5
20260507154916 49 0.0 0.0 0.00 0.00 0.00 67 1018.6
20260507153913 49 0.0 0.0 0.00 0.00 0.00 67 1018.4
20260507152913 49 0.0 0.0 0.00 0.00 0.00 66 1018.4
20260507151915 49 0.0 0.0 0.00 0.00 0.00 65 1018.3
20260507150915 50 0.0 0.0 0.00 0.00 0.00 64 1018.3
20260507145914 50 0.0 0.0 0.00 0.00 0.00 66 1018.2
20260507144913 50 0.0 0.0 0.00 0.00 0.00 65 1018.0
20260507142916 50 0.0 0.0 0.00 0.00 0.00 65 1018.0
20260507141915 50 0.0 0.0 0.00 0.00 0.00 66 1018.0
20260507140913 49 0.0 0.0 0.00 0.00 0.00 65 1018.0
20260507134913 50 0.0 0.0 0.00 0.00 0.00 64 1017.9
20260507132913 51 0.0 0.0 0.00 0.00 0.00 64 1018.0
20260507131913 50 0.0 0.0 0.00 0.00 0.00 66 1017.9
20260507130912 50 0.0 0.0 0.00 0.00 0.00 66 1017.9
20260507125912 50 0.0 0.0 0.00 0.00 0.00 66 1017.9
20260507124912 50 0.0 0.0 0.00 0.00 0.00 67 1017.8
20260507123914 50 0.0 0.0 0.00 0.00 0.00 67 1017.8
20260507122916 49 0.0 0.0 0.00 0.00 0.00 68 1017.8
20260507121914 49 0.0 0.0 0.00 0.00 0.00 67 1017.6
20260507120912 49 0.0 0.0 0.00 0.00 0.00 69 1017.6
20260507115913 49 0.0 0.0 0.00 0.00 0.00 70 1017.5
20260507114913 48 0.0 0.0 0.00 0.00 0.00 70 1017.5
20260507113912 48 0.0 0.0 0.00 0.00 0.00 70 1017.4
20260507112913 48 0.0 0.0 0.00 0.00 0.00 71 1017.5
20260507111914 48 0.0 0.0 0.00 0.00 0.00 71 1017.4
20260507110914 48 0.0 0.0 0.00 0.00 0.00 71 1017.4
20260507105914 48 0.0 0.0 0.00 0.00 0.00 71 1017.3
20260507104913 48 0.0 0.0 0.00 0.00 0.00 72 1017.2
20260507103913 47 0.0 0.0 0.00 0.00 0.00 73 1017.2
20260507102913 47 0.0 0.0 0.00 0.00 0.00 73 1017.1
20260507101914 47 0.0 0.0 0.00 0.00 0.00 73 1017.1
20260507100914 47 0.0 0.0 0.00 0.00 0.00 73 1017.1
20260507095915 47 0.0 0.0 0.00 0.00 0.00 75 1016.9
20260507094914 47 0.0 0.0 0.00 0.00 0.00 75 1016.8
20260507093912 47 0.0 0.0 0.00 0.00 0.00 76 1016.8
20260507091914 46 0.0 0.0 0.00 0.00 0.00 78 1016.7
20260507090912 45 0.0 0.0 0.00 0.00 0.00 82 1016.5
20260507084913 44 0.0 0.0 0.00 0.00 0.00 82 1016.4
20260507083912 44 0.0 0.0 0.00 0.00 0.00 85 1016.2
20260507081914 43 0.0 0.0 0.00 0.00 0.00 86 1016.1
20260507080913 42 0.0 0.0 0.00 0.00 0.00 86 1016.0
20260507075912 42 0.0 0.0 0.00 0.00 0.00 87 1016.0
20260507074913 42 0.0 0.0 0.00 0.00 0.00 87 1016.0
20260507073914 42 0.0 0.0 0.00 0.00 0.00 89 1015.9
20260507072913 42 0.0 0.0 0.00 0.00 0.00 89 1015.7
20260507070913 42 0.0 0.0 0.00 0.00 0.00 89 1015.7
20260507065915 41 0.0 0.0 0.00 0.00 0.00 89 1015.5
20260507064914 41 0.0 0.0 0.00 0.00 0.00 91 1015.4
20260507063914 41 0.0 0.0 0.00 0.00 0.00 92 1015.2
20260507062914 41 0.0 0.0 0.00 0.00 0.00 94 1015.2
20260507061914 41 0.0 0.0 0.00 0.00 0.00 93 1015.3
20260507060913 41 0.0 0.0 0.00 0.00 0.00 93 1015.2
20260507055814 41 0.0 0.0 0.00 0.00 0.00 94 1015.1
20260507055731 41 0.0 0.0 0.00 0.00 0.00 94 1015.1
20260507055414 41 0.0 0.0 0.00 0.00 0.00 94 1015.0
20260507055314 41 0.0 0.0 0.00 0.00 0.00 94 1015.1
20260507055213 41 0.0 0.0 0.00 0.00 0.00 95 1015.0
20260507055113 41 0.0 0.0 0.00 0.00 0.00 95 1015.0
20260507055022 41 0.0 0.0 0.00 0.00 0.00 95 1015.0
20260507053756 41 0.0 0.0 0.00 0.00 0.00 95 1014.8
20260507051913 41 0.0 0.0 0.00 0.00 0.00 96 1014.9
20260507050914 41 0.0 0.0 0.00 0.00 0.00 97 1014.7
20260507045913 41 0.0 0.0 0.00 0.00 0.00 97 1014.8
20260507045813 41 0.0 0.0 0.00 0.00 0.00 97 1014.8
20260507045614 41 0.0 0.0 0.00 0.00 0.00 97 1014.7
20260507045512 41 0.0 0.0 0.00 0.00 0.00 97 1014.8
20260507045412 41 0.0 0.0 0.00 0.00 0.00 97 1014.8
20260507045312 41 0.0 0.0 0.00 0.00 0.00 98 1014.7
20260507045211 41 0.0 0.0 0.00 0.00 0.00 99 1014.8
20260507045113 41 0.0 0.0 0.00 0.00 0.00 98 1014.7
20260507045013 41 0.0 0.0 0.00 0.00 0.00 98 1014.7
20260507044013 41 0.0 0.0 0.00 0.00 0.00 98 1014.5
20260507043013 41 0.0 0.0 0.00 0.00 0.00 99 1014.2
20260507042014 41 0.0 0.0 0.00 0.00 0.00 98 1014.1
20260507041033 41 0.0 0.0 0.00 0.00 0.00 10 1014.0
20260507035915 41 0.0 0.0 0.00 0.00 0.00 10 1014.0
20260507034914 41 0.0 0.0 0.00 0.00 0.00 10 1013.7
20260507033913 41 0.0 0.0 0.00 0.00 0.00 10 1013.7
20260507031916 41 0.0 0.0 0.00 0.00 0.00 10 1013.4
20260507030915 40 0.0 0.0 0.00 0.00 0.00 10 1013.5
20260507025914 40 0.0 0.0 0.00 0.00 0.00 10 1013.5
20260507024913 40 0.0 0.0 0.00 0.00 0.00 10 1013.5
20260507023912 40 0.0 0.0 0.00 0.00 0.00 10 1013.5
20260507021913 40 0.0 0.0 0.00 0.00 0.00 10 1013.2
20260507020913 40 0.0 0.0 0.00 0.00 0.00 10 1013.1
20260507015912 40 0.0 0.0 0.00 0.00 0.00 10 1013.1
20260507013914 40 0.0 0.0 0.00 0.00 0.00 10 1012.9
20260507011915 41 0.0 0.0 0.00 0.00 0.00 10 1013.0
20260507010913 41 0.0 0.0 0.00 0.00 0.00 10 1012.9
20260507004913 41 0.0 0.0 0.00 0.00 0.00 10 1012.8
20260507003914 41 0.0 0.0 0.00 0.00 0.00 10 1012.5
20260507002914 41 0.0 0.0 0.00 0.00 0.00 99 1012.4
20260507001913 41 0.0 0.0 0.00 0.00 0.00 10 1012.6
20260506235914 41 0.0 0.0 0.00 0.00 0.00 10 1012.8
20260506234913 41 0.0 0.0 0.00 0.00 0.00 10 1012.7
20260506233914 41 0.0 0.0 0.00 0.00 0.00 10 1012.5
20260506232914 41 0.0 0.0 0.00 0.00 0.00 99 1012.4
20260506231914 41 0.0 0.0 0.00 0.00 0.00 10 1012.4
20260506230914 41 0.0 0.0 0.00 0.00 0.00 99 1012.4
20260506225913 41 0.0 0.0 0.00 0.00 0.00 99 1012.2
20260506224913 41 0.0 0.0 0.00 0.00 0.00 98 1012.2
20260506223914 41 0.0 0.0 0.00 0.00 0.00 10 1012.3
20260506222914 41 0.0 0.0 0.00 0.00 0.00 99 1012.3
20260506221914 41 0.0 0.0 0.00 0.00 0.00 99 1012.3